�������l�o���
Date,Time,MP-1(��Sv/h),MP-2(��Sv/h),MP-3(��Sv/h),MP-4(��Sv/h),MP-5(��Sv/h),MP-6(��Sv/h),MP-7(��Sv/h),����,����(m/s),���J
2017/02/20,00:00,0.396,0.234,0.408,0.377,0.338,0.195,0.167,�쐼,5.2,��
2017/02/20,00:10,0.395,0.234,0.408,0.377,0.337,0.195,0.167,�쐼,4.3,��
2017/02/20,00:20,0.396,0.236,0.409,0.378,0.338,0.196,0.167,�쐼,4.8,��
2017/02/20,00:30,0.397,0.234,0.408,0.378,0.339,0.196,0.167,�쐼,3.5,��
2017/02/20,00:40,0.398,0.235,0.407,0.376,0.339,0.195,0.168,�쐼,3.4,��
2017/02/20,00:50,0.398,0.234,0.408,0.377,0.338,0.195,0.168,�쐼,3.9,��
2017/02/20,01:00,0.396,0.235,0.409,0.378,0.338,0.196,0.167,��쐼,3.8,��
2017/02/20,01:10,0.396,0.236,0.410,0.377,0.339,0.195,0.168,��쐼,4.5,��
2017/02/20,01:20,0.398,0.234,0.408,0.376,0.338,0.195,0.167,��쐼,3.9,��
2017/02/20,01:30,0.396,0.237,0.407,0.378,0.339,0.195,0.166,��쐼,2.2,��
2017/02/20,01:40,0.396,0.233,0.407,0.377,0.338,0.195,0.167,��쐼,2.9,��
2017/02/20,01:50,0.396,0.235,0.408,0.377,0.337,0.196,0.167,��쐼,2.8,��
2017/02/20,02:00,0.397,0.235,0.409,0.377,0.338,0.196,0.166,��쐼,3.1,��
2017/02/20,02:10,0.397,0.235,0.408,0.376,0.339,0.195,0.168,��쐼,1.9,��
2017/02/20,02:20,0.397,0.235,0.408,0.376,0.339,0.196,0.167,�쐼,2.8,��
2017/02/20,02:30,0.397,0.233,0.407,0.378,0.336,0.195,0.167,�쐼,2.3,��
2017/02/20,02:40,0.398,0.233,0.408,0.377,0.338,0.195,0.167,�쐼,3.4,��
2017/02/20,02:50,0.397,0.234,0.407,0.377,0.339,0.196,0.166,��쐼,4.1,��
2017/02/20,03:00,0.398,0.235,0.407,0.377,0.338,0.195,0.168,�쐼,4.4,��
2017/02/20,03:10,0.397,0.234,0.408,0.376,0.338,0.196,0.167,�쐼,4.0,��
2017/02/20,03:20,0.397,0.234,0.407,0.377,0.339,0.196,0.168,�쐼,3.9,��
2017/02/20,03:30,0.396,0.236,0.409,0.378,0.339,0.196,0.167,�쐼,4.2,��
2017/02/20,03:40,0.396,0.235,0.407,0.377,0.337,0.196,0.167,�쐼,4.2,��
2017/02/20,03:50,0.397,0.234,0.408,0.376,0.339,0.195,0.167,�쐼,4.5,��
2017/02/20,04:00,0.397,0.235,0.407,0.377,0.339,0.196,0.167,�쐼,4.7,��
2017/02/20,04:10,0.396,0.234,0.409,0.377,0.338,0.196,0.167,�쐼,4.5,��
2017/02/20,04:20,0.396,0.235,0.409,0.377,0.338,0.196,0.167,�쐼,4.5,��
2017/02/20,04:30,0.394,0.234,0.406,0.376,0.337,0.196,0.167,��쐼,4.2,��
2017/02/20,04:40,0.396,0.233,0.408,0.377,0.337,0.195,0.168,��쐼,5.9,��
2017/02/20,04:50,0.397,0.235,0.408,0.376,0.339,0.196,0.167,��쐼,5.3,��
2017/02/20,05:00,0.397,0.234,0.408,0.376,0.338,0.196,0.167,��쐼,5.6,��
2017/02/20,05:10,0.395,0.234,0.407,0.376,0.338,0.196,0.167,��쐼,5.5,��
2017/02/20,05:20,0.395,0.234,0.409,0.378,0.339,0.195,0.167,��쐼,5.0,��
2017/02/20,05:30,0.396,0.235,0.408,0.375,0.339,0.195,0.167,��쐼,5.1,��
2017/02/20,05:40,0.397,0.234,0.406,0.376,0.338,0.196,0.167,�쐼,5.8,��
2017/02/20,05:50,0.397,0.234,0.407,0.378,0.337,0.196,0.167,��쐼,5.0,��
2017/02/20,06:00,0.395,0.235,0.407,0.377,0.339,0.195,0.168,��쐼,5.2,��
2017/02/20,06:10,0.398,0.233,0.407,0.376,0.337,0.195,0.166,��쐼,5.3,��
2017/02/20,06:20,0.397,0.234,0.407,0.377,0.339,0.196,0.167,��쐼,6.2,��
2017/02/20,06:30,0.396,0.235,0.407,0.377,0.338,0.196,0.166,��쐼,5.6,��
2017/02/20,06:40,0.396,0.234,0.408,0.376,0.339,0.195,0.167,��쐼,4.2,��
2017/02/20,06:50,0.396,0.234,0.408,0.375,0.339,0.195,0.167,�쐼,5.0,��
2017/02/20,07:00,0.396,0.234,0.405,0.377,0.338,0.196,0.167,�쐼,6.1,��
2017/02/20,07:10,0.398,0.235,0.409,0.378,0.339,0.196,0.167,�쐼,5.3,��
2017/02/20,07:20,0.396,0.234,0.406,0.375,0.338,0.195,0.167,�쐼,5.0,��
2017/02/20,07:30,0.395,0.234,0.406,0.377,0.339,0.195,0.166,�쐼,5.2,��
2017/02/20,07:40,0.397,0.235,0.406,0.378,0.339,0.196,0.167,�쐼,4.3,��
2017/02/20,07:50,0.396,0.233,0.409,0.376,0.341,0.195,0.166,��쐼,6.0,��
2017/02/20,08:00,0.396,0.235,0.406,0.377,0.339,0.196,0.167,��쐼,5.5,��
2017/02/20,08:10,0.397,0.235,0.406,0.378,0.338,0.195,0.168,��쐼,4.0,��
2017/02/20,08:20,0.396,0.235,0.408,0.374,0.339,0.194,0.167,��쐼,5.0,��
2017/02/20,08:30,0.396,0.235,0.406,0.377,0.338,0.196,0.167,��쐼,5.2,��
2017/02/20,08:40,0.397,0.234,0.406,0.377,0.340,0.196,0.167,��,4.8,��
2017/02/20,08:50,0.397,0.236,0.407,0.375,0.340,0.196,0.167,��쐼,5.4,��
2017/02/20,09:00,0.396,0.235,0.407,0.377,0.338,0.197,0.167,��쐼,3.4,��
2017/02/20,09:10,0.398,0.236,0.406,0.377,0.339,0.195,0.169,��쐼,1.9,��
2017/02/20,09:20,0.396,0.234,0.410,0.373,0.338,0.196,0.167,��,2.7,��
2017/02/20,09:30,0.395,0.235,0.407,-,0.338,0.195,0.167,��쐼,4.2,��
2017/02/20,09:40,0.395,0.235,0.407,-,0.339,0.195,0.166,��,3.3,��
2017/02/20,09:50,0.393,0.234,0.407,-,0.338,0.195,0.165,��,8.6,��
2017/02/20,10:00,0.397,0.234,0.407,-,0.338,0.195,0.167,��,7.4,��
2017/02/20,10:10,0.394,0.235,0.407,-,0.339,0.196,0.167,��쓌,4.5,��
2017/02/20,10:20,0.395,0.236,0.408,-,0.338,0.196,0.167,��,5.9,�L
2017/02/20,10:30,0.396,0.236,0.406,-,0.341,0.197,0.168,��쐼,8.7,�L
2017/02/20,10:40,0.399,0.237,0.408,-,0.341,0.198,0.168,�쐼,9.9,�L
2017/02/20,10:50,0.398,0.237,0.408,-,0.340,0.199,0.170,�쐼,8.8,�L
2017/02/20,11:00,0.400,0.239,0.409,-,0.344,0.201,0.171,�쐼,7.8,�L
2017/02/20,11:10,0.402,0.240,0.413,-,0.342,0.201,0.172,�쐼,6.4,�L
2017/02/20,11:20,0.401,0.241,0.414,-,0.344,0.203,0.174,��쐼,5.3,�L
2017/02/20,11:30,0.401,0.242,0.413,-,0.344,0.203,0.176,��,5.3,�L
2017/02/20,11:40,0.401,0.242,0.416,-,0.343,0.202,0.174,��쓌,2.4,��
2017/02/20,11:50,0.401,0.239,0.411,-,0.345,0.202,0.173,��쐼,2.9,��
2017/02/20,12:00,0.399,0.240,0.410,-,0.342,0.201,0.172,��쐼,3.5,��
2017/02/20,12:10,0.399,0.238,0.408,-,0.342,0.200,0.170,��쐼,2.9,��
2017/02/20,12:20,0.396,0.238,0.407,0.376,0.340,0.199,0.170,��,4.4,��
2017/02/20,12:30,0.399,0.236,0.406,0.377,0.339,0.198,0.168,��,5.6,��
2017/02/20,12:40,0.394,0.237,0.408,0.374,0.338,0.197,0.170,��,5.1,��
2017/02/20,12:50,0.398,0.235,0.405,0.375,0.340,0.197,0.169,��,4.7,��
2017/02/20,13:00,0.396,0.237,0.407,0.376,0.337,0.197,0.168,��,4.1,��
2017/02/20,13:10,0.397,0.236,0.406,0.377,0.340,0.196,0.169,��쓌,2.8,��
2017/02/20,13:20,0.395,0.236,0.408,0.376,0.337,0.197,0.167,�쓌,3.1,��
2017/02/20,13:30,0.397,0.235,0.408,0.379,0.342,0.197,0.168,�쓌,3.5,��
2017/02/20,13:40,0.394,0.235,0.408,0.378,0.339,0.197,0.167,��쓌,3.1,��
2017/02/20,13:50,0.396,0.236,0.396,0.380,0.337,0.196,0.168,��쓌,3.3,��
2017/02/20,14:00,0.394,0.235,0.397,0.377,0.340,0.196,0.167,��쓌,2.6,��
2017/02/20,14:10,0.397,0.236,-,0.377,0.339,0.196,0.167,��,2.8,��
2017/02/20,14:20,0.394,0.236,-,0.375,0.339,0.197,0.167,��쓌,1.1,��
2017/02/20,14:30,0.398,0.235,-,0.375,0.338,0.196,0.167,���k��,1.1,��
2017/02/20,14:40,0.396,0.234,-,0.377,0.340,0.197,0.168,��쓌,0.6,��
2017/02/20,14:50,0.396,0.236,-,0.375,0.337,0.196,0.166,-,CALM,��
2017/02/20,15:00,0.398,0.235,-,0.376,0.340,0.196,0.167,-,CALM,�L
2017/02/20,15:10,0.395,0.236,-,0.375,0.338,0.196,0.168,-,CALM,��
2017/02/20,15:20,0.397,0.236,-,0.379,0.338,0.196,0.167,�k��,0.6,�L
2017/02/20,15:30,0.396,0.235,-,0.375,0.339,0.196,0.168,�k�k��,1.0,�L
2017/02/20,15:40,0.396,0.236,-,0.379,0.339,0.196,0.168,�k�k��,0.8,�L
2017/02/20,15:50,0.396,0.237,-,0.379,0.343,0.197,0.168,�k,3.0,�L
2017/02/20,16:00,0.399,0.237,-,0.380,0.342,0.200,0.170,�k,3.3,�L
2017/02/20,16:10,0.401,0.240,-,0.382,0.343,0.200,0.171,�k,4.2,�L
2017/02/20,16:20,0.400,0.239,-,0.380,0.343,0.200,0.169,�k,5.0,�L
2017/02/20,16:30,0.399,0.238,-,0.381,0.343,0.199,0.170,�k,5.3,�L
2017/02/20,16:40,0.401,0.240,0.405,0.379,0.342,0.200,0.170,�k,6.7,�L
2017/02/20,16:50,0.400,0.238,0.410,0.380,0.344,0.199,0.172,�k,5.4,�L
2017/02/20,17:00,0.399,0.237,0.409,0.381,0.343,0.199,0.170,�k,4.7,�L
2017/02/20,17:10,0.400,0.238,0.410,0.381,0.343,0.198,0.169,�k�k��,4.8,�L
2017/02/20,17:20,0.397,0.238,0.409,0.382,0.341,0.199,0.171,�k��,4.1,�L
2017/02/20,17:30,0.398,0.237,0.409,0.379,0.340,0.198,0.170,�k��,3.6,�L
2017/02/20,17:40,0.399,0.238,0.411,0.378,0.343,0.198,0.170,�k��,4.0,�L
2017/02/20,17:50,0.399,0.239,0.413,0.383,0.342,0.201,0.172,���k��,5.3,�L
2017/02/20,18:00,0.400,0.239,0.410,0.379,0.342,0.201,0.171,���k��,7.7,�L
2017/02/20,18:10,0.401,0.240,0.412,0.381,0.344,0.200,0.172,��,11.8,�L
2017/02/20,18:20,0.400,0.240,0.410,0.382,0.343,0.200,0.172,��,11.1,��
2017/02/20,18:30,0.399,0.240,0.409,0.382,0.343,0.201,0.172,��,12.4,�L
2017/02/20,18:40,0.401,0.240,0.413,0.384,0.344,0.199,0.172,���k��,9.2,�L
2017/02/20,18:50,0.400,0.240,0.409,0.380,0.342,0.200,0.170,�k��,7.2,��
2017/02/20,19:00,0.399,0.238,0.409,0.379,0.343,0.199,0.169,���k��,6.9,��
2017/02/20,19:10,0.401,0.238,0.412,0.380,0.341,0.198,0.171,���k��,6.7,�L
2017/02/20,19:20,0.399,0.238,0.408,0.378,0.340,0.199,0.170,���k��,5.3,��
2017/02/20,19:30,0.398,0.237,0.410,0.378,0.341,0.197,0.169,���k��,6.7,��
2017/02/20,19:40,0.401,0.236,0.407,0.379,0.342,0.197,0.168,���k��,6.9,��
2017/02/20,19:50,0.396,0.236,0.407,0.377,0.339,0.197,0.169,��,7.8,��
2017/02/20,20:00,0.399,0.236,0.407,0.380,0.339,0.197,0.168,���k��,7.1,��
2017/02/20,20:10,0.397,0.236,0.409,0.377,0.340,0.197,0.168,�k��,8.3,��
2017/02/20,20:20,0.397,0.237,0.407,0.376,0.339,0.196,0.168,�k��,12.1,��
2017/02/20,20:30,0.399,0.235,0.410,0.379,0.341,0.196,0.167,�k��,7.1,��
2017/02/20,20:40,0.397,0.235,0.408,0.376,0.337,0.198,0.167,�k��,8.5,��
2017/02/20,20:50,0.397,0.235,0.408,0.378,0.338,0.197,0.168,���k��,8.7,��
2017/02/20,21:00,0.397,0.236,0.410,0.380,0.338,0.196,0.167,���k��,8.6,��
2017/02/20,21:10,0.399,0.237,0.410,0.378,0.339,0.195,0.167,���k��,10.4,��
2017/02/20,21:20,0.396,0.235,0.410,0.378,0.340,0.196,0.167,���k��,13.6,��
2017/02/20,21:30,0.397,0.236,0.409,0.378,0.338,0.197,0.167,�k��,11.5,��
2017/02/20,21:40,0.397,0.235,0.410,0.377,0.340,0.196,0.167,�k��,12.7,��
2017/02/20,21:50,0.398,0.235,0.409,0.378,0.338,0.196,0.168,���k��,15.1,��
2017/02/20,22:00,0.397,0.234,0.407,0.378,0.338,0.197,0.167,���k��,19.3,��
2017/02/20,22:10,0.395,0.234,0.409,0.378,0.339,0.196,0.167,���k��,19.7,��
2017/02/20,22:20,0.397,0.234,0.409,0.378,0.339,0.196,0.167,���k��,15.7,��
2017/02/20,22:30,0.399,0.235,0.410,0.379,0.340,0.196,0.167,���k��,14.0,��
2017/02/20,22:40,0.398,0.234,0.407,0.378,0.340,0.197,0.167,���k��,17.4,��
2017/02/20,22:50,0.396,0.234,0.411,0.378,0.341,0.197,0.168,���k��,21.6,��
2017/02/20,23:00,0.398,0.236,0.408,0.379,0.339,0.197,0.168,���k��,15.9,��
2017/02/20,23:10,0.399,0.235,0.409,0.379,0.339,0.195,0.168,���k��,14.4,��
2017/02/20,23:20,0.397,0.237,0.410,0.377,0.342,0.196,0.168,��,13.4,��
2017/02/20,23:30,0.398,0.236,0.411,0.379,0.339,0.197,0.168,���k��,14.0,��
2017/02/20,23:40,0.399,0.236,0.411,0.378,0.339,0.197,0.168,��,14.5,��
2017/02/20,23:50,0.400,0.234,0.409,0.380,0.340,0.196,0.168,��,15.7,��
